Previsão horária em Cegielnia

Hoje, 2 Agosto, Segunda-feira

Tempo Temperatura Precipitação Vento Pressão Humidade
00:00 +14°C° 0 mm 3 m/s 731 mmHg 95%
01:00 +13°C° 0 mm 3 m/s 731 mmHg 95%
02:00 +13°C° 0 mm 3 m/s 732 mmHg 95%
03:00 +13°C° 0 mm 3 m/s 732 mmHg 94%
04:00 +13°C° 0 mm 3 m/s 732 mmHg 93%
05:00 +13°C° 0.1 mm 3 m/s 732 mmHg 91%
06:00 +14°C° 0.1 mm 3 m/s 733 mmHg 89%
07:00 +14°C° 0.1 mm 4 m/s 733 mmHg 87%
08:00 +17°C° 0.1 mm 4 m/s 734 mmHg 80%
09:00 +18°C° 0.1 mm 4 m/s 734 mmHg 74%
10:00 +19°C° 0.1 mm 4 m/s 734 mmHg 68%
11:00 +20°C° 0.3 mm 5 m/s 734 mmHg 63%
12:00 +21°C° 0.3 mm 5 m/s 734 mmHg 59%
13:00 +22°C° 0.3 mm 5 m/s 734 mmHg 55%
14:00 +22°C° 0.1 mm 5 m/s 734 mmHg 54%
15:00 +22°C° 0.1 mm 5 m/s 735 mmHg 53%
16:00 +22°C° 0.1 mm 4 m/s 735 mmHg 52%
17:00 +20°C° 0.2 mm 4 m/s 735 mmHg 59%
18:00 +19°C° 0.2 mm 3 m/s 735 mmHg 67%
19:00 +18°C° 0.2 mm 2 m/s 735 mmHg 74%
20:00 +17°C° 0 mm 2 m/s 735 mmHg 77%
21:00 +16°C° 0 mm 2 m/s 735 mmHg 81%
22:00 +15°C° 0 mm 2 m/s 736 mmHg 84%
23:00 +15°C° 0 mm 2 m/s 736 mmHg 85%

Amanhã, 3 Agosto, Terça-feira

Tempo Temperatura Precipitação Vento Pressão Humidade
00:00 +14°C° 0 mm 2 m/s 736 mmHg 87%
01:00 +14°C° 0 mm 2 m/s 736 mmHg 88%
02:00 +14°C° 0 mm 2 m/s 736 mmHg 88%
03:00 +13°C° 0 mm 2 m/s 736 mmHg 89%
04:00 +13°C° 0 mm 2 m/s 737 mmHg 90%
05:00 +14°C° 0 mm 2 m/s 737 mmHg 84%
06:00 +16°C° 0 mm 2 m/s 737 mmHg 78%
07:00 +17°C° 0 mm 2 m/s 737 mmHg 72%
08:00 +19°C° 0 mm 2 m/s 737 mmHg 64%
09:00 +20°C° 0 mm 2 m/s 737 mmHg 57%
10:00 +23°C° 0 mm 2 m/s 737 mmHg 49%
11:00 +23°C° 0 mm 2 m/s 737 mmHg 46%
12:00 +24°C° 0 mm 2 m/s 737 mmHg 43%
13:00 +25°C° 0 mm 1 m/s 737 mmHg 40%
14:00 +25°C° 0 mm 1 m/s 737 mmHg 42%
15:00 +24°C° 0 mm 1 m/s 736 mmHg 43%
16:00 +24°C° 0 mm 1 m/s 736 mmHg 45%
17:00 +23°C° 0.1 mm 1 m/s 736 mmHg 51%
18:00 +22°C° 0.1 mm 1 m/s 736 mmHg 57%
19:00 +21°C° 0.1 mm 1 m/s 735 mmHg 62%
20:00 +20°C° 0.8 mm 1 m/s 736 mmHg 68%
21:00 +19°C° 0.8 mm 1 m/s 736 mmHg 75%
22:00 +18°C° 0.8 mm 1 m/s 736 mmHg 81%
23:00 +18°C° 0.4 mm 1 m/s 736 mmHg 83%

Depois de amanhã, 4 Agosto, Quarta-feira

Tempo Temperatura Precipitação Vento Pressão Humidade
00:00 +16°C° 0.4 mm 1 m/s 736 mmHg 85%
01:00 +16°C° 0.4 mm 1 m/s 736 mmHg 87%
02:00 +16°C° 0 mm 1 m/s 736 mmHg 88%
03:00 +16°C° 0 mm 1 m/s 736 mmHg 89%
04:00 +15°C° 0 mm 1 m/s 736 mmHg 90%
05:00 +16°C° 0 mm 1 m/s 736 mmHg 87%
06:00 +18°C° 0 mm 1 m/s 736 mmHg 84%
07:00 +18°C° 0 mm 1 m/s 736 mmHg 82%
08:00 +19°C° 0 mm 2 m/s 736 mmHg 76%
09:00 +20°C° 0 mm 2 m/s 736 mmHg 71%
10:00 +21°C° 0 mm 2 m/s 736 mmHg 66%
11:00 +21°C° 0 mm 2 m/s 736 mmHg 62%
12:00 +23°C° 0 mm 2 m/s 736 mmHg 59%
13:00 +23°C° 0 mm 2 m/s 736 mmHg 55%
14:00 +24°C° 0 mm 3 m/s 736 mmHg 52%
15:00 +25°C° 0 mm 3 m/s 736 mmHg 49%
16:00 +25°C° 0 mm 3 m/s 736 mmHg 46%
17:00 +24°C° 0 mm 2 m/s 736 mmHg 52%
18:00 +23°C° 0 mm 2 m/s 735 mmHg 59%
19:00 +20°C° 0 mm 2 m/s 735 mmHg 66%
20:00 +20°C° 0 mm 2 m/s 735 mmHg 68%
21:00 +20°C° 0 mm 1 m/s 735 mmHg 70%
22:00 +20°C° 0 mm 1 m/s 735 mmHg 73%
23:00 +18°C° 0 mm 2 m/s 735 mmHg 73%

5 Agosto, Quinta-feira

Tempo Temperatura Precipitação Vento Pressão Humidade
00:00 +18°C° 0 mm 2 m/s 735 mmHg 74%
01:00 +18°C° 0 mm 2 m/s 735 mmHg 75%
02:00 +17°C° 0.3 mm 2 m/s 734 mmHg 79%
03:00 +18°C° 0.3 mm 1 m/s 734 mmHg 82%
04:00 +18°C° 0.3 mm 1 m/s 734 mmHg 86%
05:00 +16°C° 0.9 mm 2 m/s 733 mmHg 89%
06:00 +16°C° 0.9 mm 2 m/s 733 mmHg 92%
07:00 +16°C° 0.9 mm 2 m/s 732 mmHg 95%
08:00 +16°C° 0.8 mm 2 m/s 732 mmHg 95%
09:00 +16°C° 0.8 mm 2 m/s 732 mmHg 95%
10:00 +17°C° 0.8 mm 2 m/s 732 mmHg 94%
11:00 +18°C° 0.2 mm 2 m/s 731 mmHg 91%
12:00 +19°C° 0.2 mm 3 m/s 731 mmHg 87%
13:00 +20°C° 0.2 mm 3 m/s 730 mmHg 83%
14:00 +19°C° 0.3 mm 3 m/s 730 mmHg 86%
15:00 +18°C° 0.3 mm 4 m/s 730 mmHg 89%
16:00 +16°C° 0.3 mm 5 m/s 730 mmHg 93%
17:00 +15°C° 0.1 mm 5 m/s 730 mmHg 93%
18:00 +15°C° 0.1 mm 5 m/s 730 mmHg 94%
19:00 +14°C° 0.1 mm 5 m/s 730 mmHg 94%
20:00 +14°C° 0 mm 5 m/s 730 mmHg 94%
21:00 +14°C° 0 mm 5 m/s 730 mmHg 94%
22:00 +14°C° 0 mm 5 m/s 730 mmHg 93%
23:00 +14°C° 0 mm 5 m/s 730 mmHg 92%

6 Agosto, Sexta-feira

Tempo Temperatura Precipitação Vento Pressão Humidade
00:00 +14°C° 0 mm 5 m/s 729 mmHg 92%
01:00 +14°C° 0 mm 4 m/s 729 mmHg 91%
02:00 +14°C° 0 mm 5 m/s 729 mmHg 90%
03:00 +14°C° 0 mm 5 m/s 729 mmHg 89%
04:00 +14°C° 0 mm 5 m/s 729 mmHg 88%
05:00 +14°C° 0 mm 5 m/s 729 mmHg 86%
06:00 +15°C° 0 mm 5 m/s 730 mmHg 84%
07:00 +15°C° 0 mm 6 m/s 730 mmHg 81%
08:00 +17°C° 0 mm 6 m/s 730 mmHg 73%
09:00 +20°C° 0 mm 6 m/s 730 mmHg 64%
10:00 +22°C° 0 mm 7 m/s 731 mmHg 55%
11:00 +22°C° 0 mm 7 m/s 731 mmHg 52%
12:00 +23°C° 0 mm 7 m/s 731 mmHg 48%
13:00 +24°C° 0 mm 6 m/s 731 mmHg 45%
14:00 +24°C° 0 mm 6 m/s 731 mmHg 47%
15:00 +23°C° 0 mm 5 m/s 731 mmHg 49%
16:00 +23°C° 0 mm 5 m/s 731 mmHg 51%
17:00 +22°C° 0.1 mm 4 m/s 731 mmHg 57%
18:00 +21°C° 0.1 mm 4 m/s 731 mmHg 64%
19:00 +20°C° 0.1 mm 3 m/s 731 mmHg 71%
20:00 +19°C° 0.1 mm 3 m/s 731 mmHg 75%
21:00 +18°C° 0.1 mm 3 m/s 732 mmHg 79%
22:00 +17°C° 0.1 mm 3 m/s 732 mmHg 83%
23:00 +17°C° 0 mm 3 m/s 732 mmHg 85%

7 Agosto, Sábado

Tempo Temperatura Precipitação Vento Pressão Humidade
00:00 +17°C° 0 mm 3 m/s 732 mmHg 86%
01:00 +16°C° 0 mm 3 m/s 733 mmHg 88%
02:00 +16°C° 0 mm 3 m/s 733 mmHg 89%
03:00 +14°C° 0 mm 3 m/s 733 mmHg 90%
04:00 +15°C° 0 mm 2 m/s 733 mmHg 91%
05:00 +16°C° 0 mm 2 m/s 733 mmHg 85%
06:00 +18°C° 0 mm 2 m/s 734 mmHg 79%
07:00 +19°C° 0 mm 2 m/s 734 mmHg 73%
08:00 +21°C° 0 mm 3 m/s 734 mmHg 65%
09:00 +22°C° 0 mm 3 m/s 734 mmHg 57%
10:00 +25°C° 0 mm 3 m/s 734 mmHg 48%
11:00 +26°C° 0 mm 3 m/s 734 mmHg 45%
12:00 +27°C° 0 mm 4 m/s 734 mmHg 41%
13:00 +29°C° 0 mm 4 m/s 733 mmHg 37%
14:00 +29°C° 0 mm 4 m/s 733 mmHg 37%
15:00 +29°C° 0 mm 4 m/s 733 mmHg 37%
16:00 +30°C° 0 mm 4 m/s 733 mmHg 37%
17:00 +28°C° 0 mm 4 m/s 732 mmHg 42%
18:00 +27°C° 0 mm 3 m/s 732 mmHg 47%
19:00 +25°C° 0 mm 3 m/s 732 mmHg 52%
20:00 +25°C° 0 mm 4 m/s 732 mmHg 53%
21:00 +23°C° 0 mm 5 m/s 731 mmHg 53%
22:00 +23°C° 0 mm 5 m/s 731 mmHg 53%
23:00 +23°C° 0 mm 5 m/s 731 mmHg 52%
Mostrar mais

Necessitamos do seu Consentimento

A Meteoprog e os seus Fornecedores de Serviços podem armazenar e aceder a dados pessoais como cookies, identificadores do dispositivo ou outras tecnologias semelhantes existentes no seu dispositivo e processar estes dados para personalizar conteúdos e anúncios, assim como funcionalidades nas redes sociais e análise de tráfego.

  • Armazenar e/ou aceder a informações no seu dispositivo

    Os cookies, identificadores do dispositivo ou outras informações podem ser armazenados ou acedidos no seu dispositivo, para os fins acima indicados.

  • Anúncios e conteúdos personalizados, medição de anúncios e conteúdos, dados sobre o público-alvo e desenvolvimento de produtos

    Os anúncios e os conteúdos podem ser personalizados com base num perfil. Podem ser adicionados dados adicionais para uma maior personalização dos anúncios e dos conteúdos. A eficácia dos anúncios e dos conteúdos pode ser medida. Podem ser obtidas informações sobre o público que visualizou os anúncios e os conteúdos. Estes dados podem ser usados para desenvolver ou melhorar sistemas, softwares ou a experiência do utilizador.

Ao clicar em "Eu concordo”, permitirá o uso de cookies, identificadores do dispositivo e web beacons mencionados ou outras tecnologias semelhantes. As configurações do navegador do seu dispositivo podem ser alteradas.

Para certos fins, podem ser invocados interesses legítimos ao invés de consentimento. Pode ler mais informação sobre este assunto na nossa Política de Privacidade e Cookies.